Location: Brzezie
(50.1252°N, 19.8246°E)
Time: 04:33:32
(UTC+00:00)

Daily predictions for brighter satellites

Satellite Brightness Start Highest point End
(mag) Time Altitude Azimuth Time Altitude Azimuth Time Altitude Azimuth
Cosmos 2151 4.3 00:08:22 12° SSE 00:11:47 33° E 00:15:34 10° NNE
Cosmos 1825 2.7 00:13:02 23° SW 00:15:04 46° WNW 00:18:44 10° N
Cosmos 1076 Rocket 3.8 00:12:59 19° S 00:15:55 62° E 00:20:08 10° NNE
Cosmos 540 Rocket 3.4 00:15:11 20° SSW 00:18:43 89° WNW 00:23:53 10° NNE
Cosmos 1408 4.2 00:19:18 15° WSW 00:21:22 24° WNW 00:24:26 10° NNW
NOSS 2-2 (E) 3.8 00:20:41 22° S 00:22:29 39° SE 00:26:03 10° NE
Cosmos 1437 2.3 00:20:00 10° N 00:22:48 81° E 00:24:28 21° SSE
Cosmos 1242 Rocket 2.6 00:20:24 10° NNW 00:23:57 59° W 00:26:09 21° S
Cosmos 405 Rocket 3.8 00:23:36 18° WSW 00:25:43 32° WNW 00:29:05 10° N
Cosmos 2221 3.0 00:21:38 10° NNW 00:25:45 45° W 00:28:23 20° SSW
SL-16 R/B 3.8 00:21:14 10° WSW 00:26:03 28° NW 00:30:54 10° NNE
Cosmos 1656 Rocket 4.2 00:20:46 10° NW 00:26:07 42° WSW 00:30:16 16° S
Cosmos 841 Rocket 3.4 00:23:03 19° SSW 00:26:46 89° WNW 00:31:57 10° NNE
Cosmos 2058 3.3 00:24:22 20° SW 00:26:54 49° WNW 00:30:54 10° N
USA 229 DEB 4.0 00:22:35 11° WSW 00:28:49 64° NW 00:35:46 10° NE
USA 229 4.0 00:22:43 11° WSW 00:28:54 65° NW 00:35:53 10° NE
X-37B 1.4 00:28:47 23° SW 00:30:00 31° S 00:32:51 10° ESE
USA 281 4.2 00:26:41 10° SE 00:32:58 50° NE 00:39:17 10° NNW
Cosmos 1937 Rocket 4.2 00:28:57 10° NW 00:33:47 36° WSW 00:37:19 17° SSW
Meteor 2-15 Rocket 4.5 00:28:12 10° N 00:34:24 87° W 00:40:32 10° S
Nadezhda 4 Rocket 4.2 00:30:48 17° SSW 00:35:33 59° WNW 00:41:37 10° N
Cosmos 2369 Rocket 3.4 00:31:24 10° NW 00:35:56 24° WSW 00:38:58 16° SW
Meteor 2-15 4.5 00:29:52 10° NNW 00:35:59 69° W 00:41:34 12° S
NOSS 2-2 (C) 3.7 00:34:04 19° S 00:36:08 41° SE 00:39:40 10° NE
Cosmos 2026 Rocket 4.2 00:31:26 13° S 00:37:05 76° E 00:43:27 10° NNE
Aureole 3 Rocket 3.1 00:33:44 10° NNW 00:37:31 64° W 00:41:59 13° S
NOSS 3-1 (C) 4.4 00:32:24 10° WSW 00:37:48 43° NNW 00:44:14 10° NE
Cosmos 1782 4.1 00:36:29 10° N 00:40:16 38° ENE 00:44:02 10° SE
USA 307 3.5 00:38:07 19° SSW 00:40:49 42° SE 00:44:51 10° ENE
FALCON 9 DEB 3.0 00:38:32 10° WNW 00:41:41 77° NNE 00:44:49 10° ESE
CREW DRAGON DEMO-1 DEB 2.4 00:40:05 13° W 00:42:09 70° NNW 00:44:36 10° ENE
ARGOS Delta rocket 4.3 00:36:50 10° N 00:42:19 71° WNW 00:46:49 15° SSW
USA 215 4.2 00:36:40 10° ENE 00:42:57 51° N 00:49:13 10° W
NOSS 3-1 (A) 4.0 00:43:01 10° WSW 00:48:31 52° NW 00:55:04 10° NE
SL-19 R/B 4.3 00:43:26 10° NNE 00:48:42 72° ESE 00:53:45 12° S
Helios 1B rocket 2.4 00:46:41 10° NNE 00:50:48 83° WNW 00:54:08 15° SSW
ATLAS 5 CENTAUR R/B 1.7 00:48:04 17° SSW 00:51:01 59° SE 00:55:26 10° NE
Cosmos 2298 Rocket 4.1 00:46:35 10° NNW 00:51:57 89° WSW 00:57:18 10° SSE
ADEOS Rocket 3.3 00:48:07 10° SSE 00:55:24 86° WSW 01:02:00 10° NNW
Cosmos 1633 2.8 00:53:22 17° SSW 00:55:52 52° WNW 00:59:21 10° N
SeaSat 1 4.3 00:52:10 10° NE 00:56:03 23° ESE 00:59:55 10° SSE
Cosmos 1814 Rocket 4.0 00:51:51 15° SSW 00:56:13 76° WNW 01:01:24 10° NNE
USA 308 3.2 00:53:26 16° SW 00:56:42 52° SE 01:00:50 10° ENE
UNK 4.2 00:54:25 13° SSW 00:58:14 44° W 01:02:41 10° NNW
FALCON 9 DEB 2.7 00:55:39 10° WNW 00:58:45 71° SSW 01:01:48 10° ESE
CZ-3B R/B 2.4 00:52:11 10° WNW 00:59:20 66° NNE 01:02:00 10° E
Cosmos 1606 3.9 00:58:26 10° NNW 01:01:43 27° W 01:04:12 14° SW
IRIDIUM 104 4.5 00:57:52 10° N 01:03:08 79° E 01:08:21 10° S
Cosmos 2150 Rocket 4.0 00:58:20 10° NNW 01:03:33 78° WSW 01:08:47 10° SSE
FALCON 9 DEB 2.7 01:02:24 10° WNW 01:05:32 77° SSW 01:08:39 10° ESE
SL-16 R/B 3.0 00:59:52 11° S 01:05:34 44° W 01:11:27 10° NNW
Cosmos 1570 Rocket 4.2 01:01:44 13° SW 01:06:19 64° WNW 01:11:32 10° NNE
Cosmos 1933 3.4 01:03:17 10° NNW 01:07:20 64° W 01:11:24 10° S
FALCON 9 DEB 2.8 01:05:54 10° WNW 01:08:59 64° SSW 01:12:03 10° SE
Cosmos 1125 Rocket 3.5 01:06:22 10° NNW 01:11:39 81° WSW 01:16:55 10° SSE
IRIDIUM 114 4.4 01:07:02 10° N 01:12:17 88° W 01:17:31 10° S
USA 290 2.7 01:11:15 14° SW 01:13:52 48° WNW 01:17:01 10° NNE
DELTA 2 DEB (DPAF) 4.1 01:09:38 10° S 01:14:05 77° WSW 01:18:33 10° NNW
USA 305 2.9 01:10:32 11° SW 01:14:30 70° SSE 01:18:45 10° ENE
Lacrosse 4 Rocket 2.1 01:11:49 10° NW 01:15:30 32° WSW 01:19:06 10° S
Meteor 1-28 Rocket 3.2 01:11:56 10° S 01:15:43 77° WSW 01:19:33 10° NNW
CZ-4C R/B 3.7 01:12:35 10° SSE 01:16:33 25° ESE 01:21:06 10° ENE
Cosmos 1092 Rocket 4.4 01:11:05 12° SSW 01:16:39 49° WNW 01:22:38 10° N
Cosmos 1151 Rocket 3.1 01:12:26 10° N 01:16:45 83° E 01:21:00 10° SSE
Resurs 1-4 Rocket 2.8 01:14:21 10° N 01:19:21 43° WNW 01:24:21 10° SW
ARIANE 5 R/B 4.0 01:14:52 10° NNE 01:19:21 32° E 01:23:49 10° SSE
CENTAUR R/B 3.8 01:12:29 10° NW 01:20:17 64° NE 01:29:01 10° ESE
IRIDIUM 103 4.4 01:16:12 10° N 01:21:26 75° W 01:26:38 10° S
BREEZE-M R/B 3.2 01:18:11 11° SW 01:21:29 53° SSE 01:28:12 10° ENE
Cosmos 2208 Rocket 4.4 01:16:33 11° SW 01:21:42 61° WNW 01:27:07 10° NNE
Meteor 1-29 3.1 01:20:14 10° N 01:23:38 62° WNW 01:26:57 10° SSW
Cosmos 1766 Rocket 3.8 01:22:45 10° S 01:27:12 77° E 01:31:42 10° NNE
SL-4 R/B 1.6 01:24:31 10° WNW 01:28:10 89° WSW 01:31:40 10° ESE
Landsat 4 3.9 01:25:41 10° N 01:29:27 63° WNW 01:33:10 10° SSW
NPP 4.3 01:25:26 10° N 01:30:32 44° WNW 01:35:36 10° SW
ADEOS II 2.2 01:25:55 10° N 01:31:09 67° WNW 01:36:21 10° SSW
IKONOS-2 4.5 01:28:09 10° S 01:32:21 77° WSW 01:36:37 10° NNW
NOSS 2-2 (D) 3.4 01:30:30 10° WSW 01:33:54 59° NW 01:37:48 10° NE
Cosmos 921 Rocket 4.5 01:33:16 10° WSW 01:36:45 25° WNW 01:40:14 10° N
Lacrosse 5 rocket 1.1 01:33:08 10° NW 01:36:45 81° NNE 01:40:27 10° ESE
USA 306 2.9 01:32:38 10° WSW 01:36:54 88° SSE 01:41:10 10° ENE
Meteor 2-3 Rocket 3.9 01:31:55 10° SSW 01:37:27 62° WNW 01:43:00 10° N
Okean 3 Rocket 3.6 01:33:27 10° S 01:37:51 87° W 01:42:16 10° N
CZ-2D R/B 3.2 01:33:23 10° N 01:37:57 32° WNW 01:42:31 10° WSW
Cosmos 1862 4.1 01:34:24 10° S 01:38:19 51° E 01:42:16 10° NNE
Cosmos 1655 Rocket 4.2 01:34:11 10° S 01:40:23 82° E 01:46:40 10° N
Alouette 2 Rocket 3.4 01:36:59 10° NNW 01:40:28 54° W 01:44:25 10° S
IDEFIX/ARIANE 42P 2.6 01:40:19 10° NNE 01:45:36 87° WNW 01:50:50 10° SSW
ASTEX 1 3.4 01:40:56 10° S 01:45:52 74° W 01:50:49 10° N
Cosmos 2151 4.2 01:45:31 10° SW 01:49:07 27° WNW 01:52:44 10° N
EXPRESS MD2 4.1 01:45:31 10° WSW 01:53:26 80° S 01:57:16 10° E
